Flag for U.S.A. Weather past 2 weeks in Victoria, Texas, U.S.A.

Now
70 °F

Sunny.


Feels Like: 74 °F
Forecast: 59 / 79 °F
Wind: 10 mph from East

Location: Victoria Regional Airport

Current Time: Apr 21, 2015 at 10:55:01 AM

Latest Report: Apr 21, 2015 at 9:51 AM


Visibility: 10 mi

Pressure: 30.00 "Hg

Humidity: 68%

Dew point: 59 °F

Location of VictoriaLocation

Historic Weather in Victoria — Graph

°F

Victoria temperature yesterday

Maximum temperature yesterday: 70 °F (at 12:51 AM)
Minimum temperature yesterday: 60 °F (at 7:51 AM)
Average temperature yesterday: 66 °F

Past Weeks' High & Low Weather Summary

 TemperatureHumidityPressure
High85 °F (Apr 13, 4:51 PM)100% (Apr 6, 10:51 PM)30.10 "Hg (Apr 6, 10:51 PM)
Low57 °F (Apr 21, 6:51 AM)44% (Apr 20, 11:51 AM)29.70 "Hg (Apr 13, 3:58 AM)
Average72 °F88%29.93 "Hg
* Reported Apr 6 8:51 AM — Apr 21 8:51 AM, Victoria, Weather by CustomWeather, © 2015

Note: Actual official high and low records may vary slightly from our data, if they occured in-between our weather recording intervals... More about our weather records

Advertising

Victoria weather history for previous 24 hours

 ConditionsComfort  
Time TempWeatherWind HumidityBarometerVisibility
8:51 AM
Tue, Apr 21
66 °FSunny.9 mph75%29.99 "Hg10 mi
7:51 AM61 °FClear.8 mph90%29.99 "Hg10 mi
6:51 AM57 °FClear.5 mph96%29.97 "Hg10 mi
5:51 AM59 °FClear.7 mph93%29.95 "Hg10 mi
4:51 AM61 °FClear.5 mph83%29.90 "Hg10 mi
3:51 AM62 °FPassing clouds.7 mph83%29.94 "Hg10 mi
2:51 AM63 °FPassing clouds.3 mph84%29.98 "Hg10 mi
1:51 AM63 °FOvercast.5 mph78%29.98 "Hg10 mi
12:51 AM64 °FPassing clouds.No wind81%29.98 "Hg10 mi
11:51 PM
Mon, Apr 20
63 °FPassing clouds.5 mph84%29.98 "Hg10 mi
10:51 PM64 °FClear.No wind81%30.00 "Hg10 mi
9:51 PM64 °FClear.No wind78%29.99 "Hg10 mi
8:51 PM65 °FSunny.7 mph76%29.96 "Hg10 mi
7:51 PM66 °FSunny.No wind75%29.96 "Hg10 mi
6:51 PM68 °FSunny.3 mph65%29.95 "Hg10 mi
5:51 PM69 °FSunny.5 mph55%29.94 "Hg10 mi
4:51 PM69 °FSunny.7 mph53%29.93 "Hg10 mi
3:51 PM69 °FSunny.10 mph51%29.93 "Hg10 mi
2:51 PM70 °FSunny.15 mph46%29.94 "Hg10 mi
1:51 PM69 °FSunny.15 mph47%29.97 "Hg10 mi
12:51 PM69 °FSunny.14 mph45%29.99 "Hg10 mi
11:51 AM67 °FSunny.17 mph44%30.01 "Hg10 mi
10:51 AM65 °FSunny.14 mph49%30.03 "Hg10 mi
Weather by CustomWeather, © 2015

See weather overviewHow to use our weather pages